Location: Garbet
(42.8837°N, 1.2115°E)
Time: 22:12:52
(UTC+00:00)

SMAP - Pass Details

Date: 13 December 2025
Orbit: 681 x 683 km, 98.1° (Epoch: 21 January)

Event Time Altitude Azimuth Distance (km) Brightness Sun altitude
Rises 17:10:37 0° 162° (SSE) 3,032 6.5 -8.9°
Reaches altitude 10° 17:12:51 10° 161° (SSE) 2,122 5.7 -9.2°
Maximum altitude 17:17:29 78° 75° (ENE) 703 3.0 -10.0°
Drops below altitude 10° 17:22:10 10° 350° (N) 2,137 5.5 -10.8°
Sets 17:24:25 0° 349° (N) 3,057 6.3 -11.2°
